Vertical_Velocity
-1 -0 -1 -1 -2 0 1 -0 -2 -0 0 -1 -2 -1 -1 0 -2 -2 -16 -13 -9 7 1 1 6 5 9 5 3 2 0 0 -5 2 -5 1 0 2 1 -1 1 1 4 3 1
-0 -2 -0 -0 -1 -0 1 1 -1 0 1 -2 1 1 -0 1 -1 -7 -0 1 2 10 7 -2 -4 8 7 3 4 0 3 -7 -5 -2 -2 -1 -0 -2 1 1 -0 -2 0 1 3
-1 1 -2 -1 1 2 1 0 1 1 2 3 2 -2 1 5 1 -15 -1 4 10 -2 9 13 13 2 7 3 -2 -2 -4 -5 -1 -3 -1 -1 1 1 -1 0 -2 -5 -3 0 -4
1 -1 0 1 -4 -1 -1 -1 -1 -2 1 1 2 1 3 1 -8 -1 1 -1 1 1 2 3 12 13 3 0 -0 2 -0 -2 -7 0 1 -1 1 0 0 -7 -3 1 -1 -3 -2
-3 -1 -2 -1 -2 -3 1 3 3 0 -1 2 1 -0 4 3 -29 4 3 3 2 -4 3 2 -1 -1 -1 -1 2 5 -1 2 -4 1 -1 3 -2 -5 -3 1 2 -1 -1 -0 -0
-1 -1 -2 -1 2 1 -5 -5 1 2 2 1 4 4 4 4 2 -2 3 3 3 2 -1 5 -6 2 -1 -2 2 -3 -2 -2 1 -1 1 0 -2 0 -5 1 -2 -1 0 -1 -1
-2 -3 -1 -3 -7 0 1 -1 -3 -3 2 1 5 5 7 -38 1 2 2 3 2 -2 -2 -4 4 2 -1 1 -6 1 -1 1 1 -1 -1 2 6 -2 -15 5 0 -5 0 2 0
-6 -3 3 3 -0 -7 -6 -5 -2 -2 0 1 3 11 -12 1 3 -3 5 3 3 8 5 12 3 4 -0 3 -0 3 1 4 0 2 -4 1 -12 -6 -4 7 -3 -2 -0 -1 -4
-3 -4 -6 -4 -7 -4 -6 -3 2 0 1 3 9 1 -10 4 -1 4 3 0 1 8 11 5 11 0 11 -1 3 3 -1 3 0 -1 -1 4 -3 -6 0 3 1 0 0 2 4
-2 -4 -4 -4 2 1 -6 -9 -2 0 -2 6 8 13 1 1 4 3 5 4 -1 5 9 16 5 1 5 6 -9 -2 3 1 -2 -3 6 3 -1 0 1 0 -0 1 1 1 2
-3 -4 4 -7 -4 -2 -9 -16 -33 -1 0 5 -1 2 -2 -1 4 1 5 5 4 9 2 0 3 -4 -10 -5 -3 -2 1 -1 -0 -0 -2 -4 -1 -4 0 0 1 0 0 0 0
-2 5 3 -4 -1 -0 6 -11 2 18 -7 -15 -0 4 -1 1 -2 -18 15 2 2 -1 2 4 -3 -6 -0 1 2 1 -0 1 -1 0 -1 0 -2 -1 0 -0 -0 -0 -0 0 1
3 4 1 -3 -4 0 -3 4 8 6 6 -11 0 1 3 4 -2 -10 11 3 -2 1 0 -2 -4 1 1 1 6 -1 -0 -1 -4 -0 -0 -1 -2 2 -0 0 1 1 0 -0 1
-2 0 -2 -5 -9 -9 1 5 5 4 4 -12 -1 9 -4 0 -1 5 8 8 -1 -5 -1 -3 -4 -1 1 -0 0 5 -2 1 1 2 -3 -2 -4 -1 0 1 1 0 -0 0 -0
-1 -3 -6 -4 -3 -4 -1 1 1 4 -3 -8 -6 9 -7 -3 10 -16 -1 0 -0 -1 0 -10 0 1 2 -6 -0 -9 -1 -4 -1 1 -1 2 0 -5 0 1 0 0 1 1 3
1 -4 -4 -14 2 4 -3 -0 -0 2 -6 -8 -0 -4 -6 -4 -2 -8 4 -0 2 -1 1 -3 -1 -1 -3 1 -3 -2 -4 -2 -1 -1 4 -6 -2 -4 -1 -2 0 1 2 1 3
-1 -0 -3 4 -2 1 -1 -2 -11 -3 -8 -8 -3 -1 1 -1 -3 -2 -1 -4 2 2 1 2 -1 -0 0 -3 -1 -1 2 2 4 5 -3 -0 6 -5 -0 -1 -1 -1 1 1 3
-2 -1 -0 -1 -0 -1 -8 -12 -13 2 2 -4 1 -2 0 0 -2 -3 -0 -1 -5 -1 0 2 8 1 1 -2 -6 -3 -2 -4 -4 -2 -1 -0 -3 -6 -1 -0 1 2 2 3 1
-1 -4 -10 -9 -4 -7 -7 -10 4 2 4 3 -11 -2 -3 -3 0 -3 -0 2 2 2 4 -1 2 -3 -1 0 -1 1 3 -3 -4 -0 -2 -2 -1 1 1 2 1 2 1 -0 5
-5 -5 -9 -2 -5 -4 -13 0 -2 2 1 -0 3 -2 1 -2 -5 -4 -1 2 -1 2 1 -2 1 1 -3 -0 -1 -3 -2 -4 0 0 1 -1 -1 -3 2 2 2 2 1 4 1
-8 -5 -4 -1 -3 -14 -3 -1 -1 -1 6 3 1 -0 1 2 2 0 1 -4 -1 -3 -1 1 -3 -6 -0 -1 2 -1 1 0 -3 -0 -3 -2 -7 -3 -3 -3 -1 1 2 2 1
-7 -6 -6 -8 -20 1 -0 4 3 -1 -2 -1 1 1 1 -0 0 0 1 -1 2 1 -1 -1 -1 -1 1 3 2 -0 2 1 -3 -4 -0 -2 -6 0 -1 -1 -3 1 2 3 2
-4 -4 -2 -10 -3 -2 -5 -2 2 -3 -0 -2 -0 0 -1 0 -0 0 -0 -2 0 -0 -1 -4 -4 -3 -2 1 -5 -1 -0 1 -0 -3 -1 -4 -5 1 1 2 3 -1 2 2 2
-2 -6 -8 -6 1 2 0 -1 -4 -3 -0 -0 -0 -1 -1 -0 -0 -1 -0 -1 -0 0 1 -4 -1 -5 -4 0 2 -2 -1 -1 0 -2 -2 -2 2 5 4 0 3 4 3 2 1
-4 2 1 -3 -5 -0 1 0 -1 -3 -0 -1 -5 3 5 0 -1 -0 -1 -2 -2 0 -1 -5 -2 -1 -0 0 -0 1 0 -1 0 -0 -5 -1 -1 -0 -1 -2 1 -1 2 1 1
-4 -2 -0 -2 -1 -1 -2 -2 3 -6 3 -3 -0 -1 -0 -0 6 0 2 0 1 -6 -1 -2 -2 -1 -2 -0 0 -0 -0 -0 0 -0 -1 -1 1 -2 3 1 2 0 0 1 3
1 -2 5 -0 -2 -2 2 -1 -2 1 -4 4 3 2 -1 1 6 1 2 2 0 0 0 -2 -1 -2 -3 0 -2 -5 0 -0 -0 -0 1 -1 -1 0 3 1 -0 -0 -0 -1 -1
Height
1505 1501 1497 1492 1487 1483 1479 1474 1469 1465 1462 1459 1456 1453 1451 1450 1448 1447 1440 1439 1446 1452 1452 1455 1461 1465 1471 1473 1475 1477 1482 1485 1473 1479 1475 1474 1476 1476 1477 1479 1481 1481 1481 1481 1483
1504 1499 1495 1489 1484 1479 1475 1470 1465 1461 1457 1454 1452 1449 1447 1446 1443 1434 1430 1434 1439 1446 1447 1448 1453 1460 1466 1467 1470 1470 1470 1468 1464 1468 1470 1471 1473 1473 1476 1476 1478 1479 1479 1479 1481
1502 1497 1492 1487 1481 1476 1471 1466 1462 1458 1454 1450 1447 1445 1444 1443 1439 1421 1420 1420 1425 1435 1443 1447 1449 1452 1456 1459 1463 1460 1454 1459 1460 1463 1466 1469 1471 1471 1472 1475 1471 1474 1477 1478 1480
1500 1494 1489 1483 1477 1472 1467 1462 1458 1454 1449 1445 1442 1441 1440 1440 1438 1419 1419 1419 1420 1427 1435 1441 1447 1448 1446 1447 1450 1453 1450 1454 1457 1459 1462 1466 1467 1468 1469 1470 1470 1472 1473 1475 1477
1497 1490 1484 1478 1472 1467 1462 1457 1452 1448 1444 1440 1437 1436 1437 1436 1418 1419 1418 1418 1419 1422 1427 1429 1434 1441 1441 1444 1449 1446 1447 1448 1452 1455 1458 1461 1463 1464 1465 1468 1468 1469 1472 1473 1475
1494 1487 1481 1474 1467 1461 1455 1450 1446 1441 1437 1434 1432 1430 1431 1429 1412 1412 1414 1416 1416 1418 1421 1427 1430 1433 1434 1438 1440 1440 1444 1446 1447 1450 1453 1456 1456 1459 1459 1463 1465 1467 1469 1471 1473
1491 1484 1478 1470 1462 1455 1448 1442 1438 1434 1430 1427 1426 1425 1423 1408 1409 1409 1410 1411 1412 1413 1416 1421 1426 1430 1432 1436 1435 1437 1443 1445 1444 1447 1448 1453 1452 1448 1453 1456 1458 1461 1464 1466 1468
1489 1481 1474 1466 1457 1450 1442 1435 1429 1425 1422 1421 1422 1421 1412 1404 1403 1404 1406 1407 1409 1411 1414 1417 1425 1430 1431 1432 1433 1438 1441 1440 1438 1443 1446 1449 1432 1438 1442 1446 1450 1453 1456 1460 1463
1487 1479 1471 1462 1453 1444 1434 1427 1422 1416 1415 1417 1420 1419 1408 1402 1400 1400 1402 1404 1407 1409 1412 1416 1422 1423 1427 1430 1435 1436 1430 1435 1437 1435 1439 1442 1436 1435 1437 1440 1442 1445 1450 1455 1458
1484 1476 1468 1457 1447 1437 1427 1422 1416 1413 1415 1416 1416 1419 1404 1400 1399 1399 1399 1402 1404 1406 1410 1412 1415 1412 1418 1419 1411 1422 1428 1433 1431 1431 1432 1436 1437 1434 1435 1437 1440 1442 1445 1449 1453
1480 1472 1464 1453 1444 1433 1424 1418 1420 1416 1416 1417 1413 1404 1400 1400 1399 1399 1399 1400 1402 1404 1401 1404 1403 1398 1400 1404 1411 1413 1418 1423 1428 1424 1428 1429 1431 1433 1435 1437 1440 1441 1442 1444 1447
1475 1467 1459 1450 1442 1435 1431 1429 1434 1436 1414 1410 1402 1401 1399 1398 1397 1395 1398 1398 1399 1398 1401 1407 1399 1398 1403 1409 1411 1416 1421 1426 1426 1424 1426 1428 1428 1430 1433 1435 1438 1440 1441 1442 1443
1472 1463 1455 1446 1440 1437 1433 1434 1433 1429 1425 1406 1402 1401 1400 1398 1395 1391 1393 1392 1394 1401 1399 1397 1397 1398 1401 1403 1408 1411 1414 1417 1423 1424 1426 1427 1427 1431 1434 1436 1437 1438 1439 1440 1441
1469 1461 1452 1443 1440 1438 1436 1432 1429 1426 1422 1412 1406 1407 1404 1400 1397 1393 1392 1394 1395 1396 1401 1402 1397 1399 1402 1402 1404 1406 1408 1414 1420 1429 1430 1425 1424 1425 1430 1434 1436 1438 1439 1439 1441
1469 1462 1454 1446 1445 1440 1437 1430 1427 1426 1433 1419 1418 1413 1408 1408 1404 1396 1393 1394 1393 1393 1397 1395 1395 1398 1399 1397 1402 1401 1407 1413 1418 1423 1425 1428 1430 1420 1432 1432 1436 1439 1439 1439 1441
1470 1464 1458 1452 1447 1439 1432 1427 1427 1427 1449 1427 1419 1415 1408 1406 1406 1401 1397 1396 1396 1397 1398 1396 1394 1394 1393 1395 1397 1402 1410 1417 1420 1423 1427 1420 1421 1419 1429 1435 1439 1438 1439 1440 1442
1471 1466 1458 1452 1446 1436 1427 1425 1434 1440 1436 1432 1425 1419 1414 1410 1406 1406 1407 1405 1405 1402 1398 1392 1395 1393 1393 1395 1399 1404 1410 1412 1417 1416 1412 1420 1418 1418 1436 1439 1439 1438 1439 1440 1442
1472 1466 1461 1455 1448 1440 1431 1431 1443 1447 1445 1436 1431 1422 1420 1417 1411 1409 1406 1409 1412 1406 1396 1392 1395 1397 1397 1398 1400 1401 1401 1398 1410 1412 1418 1424 1419 1422 1440 1438 1438 1439 1440 1441 1443
1472 1468 1462 1457 1451 1444 1439 1448 1457 1456 1451 1445 1432 1428 1426 1421 1423 1419 1420 1420 1421 1417 1412 1408 1397 1404 1402 1399 1400 1401 1405 1406 1420 1433 1419 1417 1429 1437 1438 1439 1440 1442 1442 1444 1445
1472 1467 1464 1458 1452 1446 1447 1456 1461 1455 1451 1446 1443 1437 1437 1434 1429 1429 1428 1426 1423 1419 1418 1419 1409 1408 1404 1399 1401 1401 1403 1408 1405 1407 1410 1435 1433 1424 1437 1439 1442 1445 1445 1446 1449
1473 1469 1467 1461 1454 1451 1466 1469 1461 1456 1454 1450 1448 1444 1442 1438 1436 1436 1432 1429 1426 1421 1420 1423 1420 1412 1406 1408 1408 1404 1403 1406 1405 1408 1417 1430 1431 1436 1438 1439 1443 1447 1448 1449 1451
1475 1474 1470 1462 1461 1466 1470 1468 1463 1458 1455 1452 1449 1447 1446 1442 1442 1435 1432 1433 1429 1427 1428 1424 1431 1429 1417 1419 1415 1417 1416 1412 1406 1427 1426 1416 1434 1434 1436 1441 1444 1448 1451 1453 1455
1479 1478 1476 1469 1473 1473 1473 1469 1465 1461 1458 1454 1453 1450 1446 1446 1442 1436 1435 1433 1431 1429 1431 1430 1439 1430 1413 1419 1421 1423 1423 1424 1427 1432 1436 1416 1435 1437 1439 1442 1447 1449 1452 1455 1457
1484 1484 1480 1477 1482 1481 1476 1472 1467 1463 1459 1458 1455 1452 1448 1445 1440 1436 1436 1435 1433 1432 1429 1428 1444 1442 1449 1435 1430 1430 1428 1428 1430 1426 1434 1433 1434 1436 1440 1442 1447 1451 1454 1456 1459
1491 1494 1493 1487 1483 1483 1480 1476 1472 1467 1463 1460 1456 1456 1452 1448 1445 1441 1441 1439 1436 1435 1434 1436 1448 1442 1435 1434 1431 1431 1429 1430 1429 1432 1434 1433 1433 1434 1437 1441 1446 1451 1455 1457 1461
1497 1497 1493 1490 1487 1485 1482 1482 1477 1471 1469 1463 1463 1458 1456 1457 1455 1451 1448 1445 1446 1440 1442 1442 1449 1444 1446 1437 1436 1436 1432 1432 1430 1429 1436 1429 1431 1436 1440 1443 1449 1452 1455 1458 1462
1498 1497 1495 1491 1489 1488 1488 1485 1479 1475 1468 1466 1465 1461 1459 1453 1452 1450 1449 1447 1447 1447 1448 1452 1452 1460 1461 1444 1446 1449 1444 1436 1431 1431 1433 1433 1434 1438 1441 1445 1449 1453 1457 1460 1464